Home   Weather   Bandar Seri Begawan   Past weeks

Flag for Brunei Past Weather in Bandar Seri Begawan, Brunei — Yesterday and Last 2 Weeks

Now
81 °F

Partly cloudy.


Feels Like: 88 °F
Forecast: 79 / 89 °F
Wind: 2 mph from Northeast

Location: Brunei Airport

Current Time: Feb 28, 2017 at 6:39:21 am

Latest Report: Feb 28, 2017 at 6:00 am


Visibility: 6 mi

Pressure: 29.77 "Hg

Humidity: 94%

Dew Point: 79 °F

Location of Bandar Seri BegawanLocation

Past Weather in Bandar Seri Begawan — Graph

°F

Bandar Seri Begawan Temperature Yesterday

Maximum temperature yesterday: 88 °F (at 2:00 pm)
Minimum temperature yesterday: 77 °F (at 1:00 am)
Average temperature yesterday: 82 °F

High & Low Weather Summary for the Past Weeks

 TemperatureHumidityPressure
High90 °F (Feb 13, 11:30 am)100% (Feb 17, 4:30 am)30.01 "Hg (Feb 17, 4:30 am)
Low75 °F (Feb 18, 10:00 pm)49% (Feb 15, 11:00 am)29.74 "Hg (Feb 20, 2:30 pm)
Average82 °F84%29.86 "Hg
* Reported Feb 13 5:00 am — Feb 28 5:00 am, Bandar Seri Begawan, Weather by CustomWeather, © 2017

Note: Actual official high and low records may vary slightly from our data, if they occured in-between our weather recording intervals... More about our weather records

Advertising

Bandar Seri Begawan Weather History for the Previous 24 Hours

Scroll right to see more
 ConditionsComfort  
Time TempWeatherWind HumidityBarometerVisibility
5:00 am
Tue, Feb 28
81 °FPartly cloudy.2 mph94%29.77 "Hg6 mi
4:30 am81 °FPassing clouds.5 mph94%29.77 "Hg6 mi
4:00 am81 °FPassing clouds.3 mph94%29.77 "Hg6 mi
3:30 am81 °FPassing clouds.3 mph94%29.77 "Hg6 mi
3:00 am81 °FPassing clouds.3 mph94%29.77 "Hg6 mi
2:30 am81 °FPassing clouds.2 mph94%29.80 "Hg6 mi
2:00 am81 °FPassing clouds.1 mph94%29.80 "Hg6 mi
1:30 am82 °FPassing clouds.1 mph89%29.80 "Hg6 mi
1:00 am81 °FPassing clouds.1 mph94%29.80 "Hg6 mi
12:30 am82 °FPartly cloudy.2 mph89%29.83 "Hg6 mi
12:00 am82 °FPartly cloudy.8 mph89%29.83 "Hg6 mi
11:30 pm
Mon, Feb 27
82 °FPartly cloudy.6 mph89%29.83 "Hg6 mi
11:00 pm82 °FPartly cloudy.7 mph89%29.83 "Hg6 mi
10:30 pm82 °FPartly cloudy.9 mph89%29.83 "Hg6 mi
10:00 pm82 °FPassing clouds.9 mph89%29.83 "Hg6 mi
9:30 pm82 °FPartly cloudy.5 mph89%29.83 "Hg6 mi
9:00 pm82 °FPartly cloudy.8 mph89%29.80 "Hg6 mi
8:30 pm82 °FPartly cloudy.8 mph89%29.80 "Hg6 mi
8:00 pm82 °FPartly cloudy.6 mph89%29.80 "Hg6 mi
7:30 pm82 °FPassing clouds.9 mph84%29.77 "Hg6 mi
7:00 pm82 °FPartly cloudy.10 mph84%29.77 "Hg6 mi
6:30 pm82 °FBroken clouds.9 mph84%29.77 "Hg6 mi
6:00 pm82 °FBroken clouds.8 mph89%29.77 "Hg6 mi
5:30 pm84 °FBroken clouds.12 mph79%29.77 "Hg6 mi
5:00 pm84 °FBroken clouds.12 mph79%29.74 "Hg6 mi
4:30 pm86 °FBroken clouds.12 mph75%29.74 "Hg6 mi
4:00 pm86 °FBroken clouds.13 mph75%29.74 "HgN/A
3:30 pm88 °FPartly sunny.13 mph70%29.74 "HgN/A
3:00 pm86 °FPartly sunny.12 mph75%29.77 "HgN/A
2:30 pm88 °FPartly sunny.9 mph70%29.77 "HgN/A
2:00 pm88 °FPartly sunny.14 mph75%29.80 "HgN/A
1:30 pm86 °FBroken clouds.10 mph75%29.80 "HgN/A
1:00 pm86 °FBroken clouds.12 mph75%29.80 "Hg6 mi
12:30 pm84 °FPartly sunny.9 mph79%29.83 "Hg6 mi
12:00 pm84 °FPartly sunny.13 mph79%29.83 "Hg6 mi
11:30 am84 °FBroken clouds.10 mph79%29.86 "Hg6 mi
11:00 am84 °FBroken clouds.8 mph79%29.86 "Hg6 mi
10:30 am84 °FPartly sunny.7 mph79%29.86 "Hg6 mi
10:00 am82 °FPartly sunny.5 mph89%29.86 "Hg6 mi
9:30 am81 °FPartly sunny.1 mph94%29.86 "Hg6 mi
9:00 am81 °FPartly sunny.1 mph94%29.86 "Hg6 mi
8:30 am81 °FBroken clouds.5 mph94%29.83 "Hg6 mi
8:00 am79 °FBroken clouds.1 mph100%29.83 "Hg6 mi
7:30 am79 °FBroken clouds.1 mph94%29.83 "Hg6 mi
7:00 am77 °FBroken clouds.1 mph100%29.80 "Hg6 mi
6:30 am77 °FPartly cloudy.5 mph100%29.80 "Hg6 mi
6:00 am77 °FSprinkles. Partly cloudy.1 mph100%29.80 "Hg6 mi
Weather by CustomWeather, © 2017

See weather overviewHow to use our weather pages